星链-11512 (STARLINK-11512)

导读 | 星芒AI

STARLINK-11512 是 SpaceX Starlink 项目中的一颗低轨通信卫星,属于第 5 批组网发射的卫星之一。该卫星于 2020 年 11 月 24 日随猎鹰九号火箭成功入轨,旨在为全球提供高速互联网服务。它运行在约 550 公里的近地轨道,设计寿命约 5 年,并具备自动避撞和末端推进能力,以减少太空碎片风险。STARLINK-11512 与其他 Starlink 卫星共同构建全球宽带网络,提升偏远地区的网络覆盖与连接质量。

基本信息
目录编号:
62517
目录名称:
STARLINK-11512
国际标识:
2025-004G
轨道中心:
EARTH
卫星名称:
星链-11512
卫星全名:
星链-11512 (STARLINK-11512)
卫星状态:
在轨 (已飞行347 天)
发射日期:
2025-01-08 UTC
国别 :
美国 (US)
星等 :
--
轨道信息
数据来源 国际轨道数据
星历时间: 2025-12-21T21:12:03+0800
7小时前
查看轨道信息
半长轴: 6734.146km
偏心率: 0.0002718
轨道倾角: 42.999°
近地点辐角 252.200°
升交点赤经 181.331°
平近点角 107.857°
近地点: 354.178km
远地点: 357.84km
周期: 91.661分钟
每日圈数: 15.710101
详细信息
固有亮度:
5
最大亮度:
2.5
卫星平台:
Starlink V1.0
覆盖范围:
全球
运营商:
太空探索技术公司
运营商所在国:
美国
制造商(研发单位):
太空探索技术公司
制造商所在国:
美国
使用方式:
暂无
卫星简介
Starlink 计划是 SpaceX 推出的全球卫星互联网项目,通过发射低轨道卫星,为全球尤其是偏远地区提供高速、低延迟的互联网服务。自 2019 年起,Starlink 已部署数千颗卫星,旨在缩小全球数字鸿沟,推动互联网普及。该项目还为军事、航空等行业提供通信支持,带来广泛经济效益。
2D轨道图
3D轨道图
轨道高度分析图
轨道倾角分析图
轨道综合分析图
查看轨道综合分析图